Flag for Canada Weather past 2 weeks in Rae-Edzo, Northwest Territories, Canada

Now
60 °F

Cool.


Feels Like: 60 °F
Forecast: 62 / 76 °F
Wind: 2 mph from Southwest

Location: Lac La Martre

Current Time: Jul 29, 2014 at 1:38:44 AM

Latest Report: Jul 29, 2014 at 1:00 AM


Visibility: N/A

Pressure: 30.04 "Hg

Humidity: 87%

Dew point: 56 °F

Location of Rae-EdzoLocation

Historic Weather in Rae-Edzo — Graph

°F

Rae-Edzo temperature yesterday

Maximum temperature yesterday: 83 °F (at 2:00 PM)
Minimum temperature yesterday: 50 °F (at 5:00 AM)
Average temperature yesterday: 69 °F

Past Weeks' High & Low Weather Summary

 TemperatureHumidityPressure
High86 °F (Jul 14, 1:00 PM)97% (Jul 28, 6:00 AM)30.05 "Hg (Jul 28, 6:00 AM)
Low31 °F (Jul 18, 3:00 AM)19% (Jul 24, 3:00 PM)29.58 "Hg (Jul 18, 10:00 PM)
Average65 °F60%29.81 "Hg
* Reported Midnight between Jul 13 and Jul 14 — Midnight between Jul 28 and Jul 29, Rae-Edzo, Weather by CustomWeather, © 2014

Note: Actual official high and low records may vary slightly from our data, if they occured in-between our weather recording intervals... More about our weather records

Advertising

Rae-Edzo weather history for previous 24 hours

 ConditionsComfort  
Time TempWeatherWind HumidityBarometerVisibility
12:00 AM
Jul 29
63 °FMild.1 mph92%30.03 "HgN/A
11:00 PM
Jul 28
64 °FMild.2 mph78%30.03 "HgN/A
10:00 PM69 °FMild.5 mph70%30.03 "HgN/A
9:00 PM74 °FMild.3 mph57%30.03 "HgN/A
8:00 PM78 °FWarm.2 mph46%30.02 "HgN/A
7:00 PM79 °FWarm.6 mph40%30.03 "HgN/A
6:00 PM78 °FWarm.6 mph42%30.03 "HgN/A
5:00 PM76 °FMild.6 mph52%30.03 "HgN/A
4:00 PM80 °FPleasantly warm.5 mph40%30.03 "HgN/A
2:00 PM83 °FPleasantly warm.6 mph30%30.03 "HgN/A
1:00 PM81 °FPleasantly warm.6 mph37%30.04 "HgN/A
12:00 PM79 °FPleasantly warm.3 mph39%30.04 "HgN/A
11:00 AM76 °FMild.3 mph45%30.05 "HgN/A
10:00 AM73 °FMild.3 mph50%30.05 "HgN/A
9:00 AM70 °FMild.2 mph61%30.05 "HgN/A
8:00 AM68 °FMild.2 mph69%30.05 "HgN/A
7:00 AM61 °FCool.No wind83%30.05 "HgN/A
6:00 AM53 °FCool.2 mph97%30.05 "HgN/A
5:00 AM50 °FCool.2 mph88%30.04 "HgN/A
4:00 AM53 °FCool.2 mph94%30.03 "HgN/A
3:00 AM55 °FCool.2 mph81%30.03 "HgN/A
2:00 AM61 °FCool.1 mph85%30.03 "HgN/A
1:00 AM65 °FMild.2 mph74%30.02 "HgN/A
Weather by CustomWeather, © 2014

See weather overviewHow to use our weather pages